Погода Новый Уренгой

Погода Новый Уренгой : погода сейчас, прогноз погоды и архив. Всё, что Вы хотите узнать о погоде Новый Уренгой!

Хотите узнать прогноз погоды Новый Уренгой? Тогда Вам сюда: Погода Новый Уренгой

Поиск расширенной информации на нашем сайте:

Другие новости

Новости СМИ2

Главная страница сайта

Новости сайта

03.07.2017

Напоминаем, что на нашем специализированном сайте Метеоцентр.Азия вы можете получить высокодетализированные автоматические прогнозы погоды по пунктам России, СНГ и мира в авиационном формате (включающие направление и скорость ветра, видимость, явления погоды, количество и форму облачности, нижнюю и верхнюю границу облачности).


Погода Новый Уренгой - сегодня

Время (UTC), дата Ветер
(°,м/с) 
Видим.   Явления Облачность Т
(°С)
Тd
(°С)
f(%) Тe
(°С)
Pmin
(гПа)
dP
(гПа)
Po
(мм)
O2
(г/м3)
Тmin Tmax R s Состояние
почвы
18 15.06.18 300 (СЗ) 10 км  слаб. ливневой дождь{гроза}  9/5 1000 м кучево-дожд., средняя 
[Cb calv|Ac trans]
+15.5 +14.7 95 +24  1003.7  -1.8  747  282           
21 15.06.18 080 (В) 10 км  {ливн. осадки}  10/4 200 м средняя, верхняя 
[St|Ac trans|Ci fib]
+15.1 +14.8 98 +23  1005.9  2.2  749  283           
00 16.06.18 090 (В) 20000 м  {ливн. осадки}  3/0 верхняя 
[Ci fib]
+16.6 +14.8 89 +25  1006.4  0.6  749  282           
03 16.06.18 100 (В) 20000 м    1/0 верхняя 
[Ci fib]
+21.6 +15.4 68 +31  1007  0.7  750  277  +13.3       
06 16.06.18 090 (В) 20000 м    3/0 средняя 
[Ac trans]
+25.3 +14.7 52 +33  1006.9  750  274           
09 16.06.18 100 (В) 6{10}  20000 м    6/1 1000 м кучево-дожд., средняя 
[Cb calv|Ac trans]
+27.1 +10.9 36 +29  1007.3  0.4  750  273           
15 16.06.18 130 (ЮВ) 20000 м  гроза без осадков  10/3 1000 м кучево-дожд., средняя, верхняя 
[Cb calv|Ac trans|Ci fib]
+21.3 +12.4 57 +26  1008.7  751  278    +27.8  0.0     
18 16.06.18 260 (З) 20000 м  {гроза}  10/0 средняя, верхняя 
[Ac trans|Ci fib]
+15.8 +12 78 +20  1008.7  -0.1  751  284           
21 16.06.18 130 (ЮВ) 20000 м    10/0 средняя, верхняя 
[Ac trans|Ci fib]
+13.5 +12 91 +18  1009.3  0.5  751  286           
00 17.06.18 350 (С) 20000 м    10/0 средняя, верхняя 
[Ac trans|Ci fib]
+16.9 +12.4 75 +21  1008.9  -0.3  751  283           
03 17.06.18 060 (СВ) 20000 м    4/0 верхняя 
[Ci fib]
+23.9 +13.1 51 +29  1008.6  -0.1  751  276  +13.2         
06 17.06.18 080 (В) 20000 м    8/0 верхняя 
[Ci fib]
+27.9 +8.1 29 +28  1007.6  -1  750  273           
15 17.06.18 160 (Ю) 2{11}  20000 м    10/3 1000 м кучево-дожд., средняя, верхняя 
[Cb calv|Ac trans|Ci fib]
+22 +11 50 +25  1005.9  0.3  749  277    +29.8  0.0     
18 17.06.18 150 (ЮВ) 20000 м    10/0 средняя, верхняя 
[Ac trans|Ci fib]
+16.4 +12.5 78 +22  1007.2  1.2  750  283           
21 17.06.18 180 (Ю) 20000 м    10/3 1000 м кучево-дожд., средняя, верхняя 
[Cb calv|Ac trans|Ci fib]
+13.6 +11.4 87 +16  1008.3  751  286           
00 18.06.18 210 (ЮЗ) 20000 м    10/1 1000 м кучево-дожд., средняя, верхняя 
[Cb calv|Ac trans|Ci fib]
+13.2 +9.3 77 +13  1008.8  0.5  751  287           
03 18.06.18 210 (ЮЗ) 20000 м    10/0 средняя, верхняя 
[Ac trans|Ci fib]
+15.6 +7.6 59 +16  1008.7  751  285  +12.6         
06 18.06.18 230 (ЮЗ) 20000 м    10/0 средняя, верхняя 
[Ac trans|Ci fib]
+19.3 +6.2 42 +20  1007.6  -1.1  750  281           
09 18.06.18 220 (ЮЗ) 20000 м    9/3 1000 м верхняя 
[Cu hum|Ci fib]
+21.1 +5.9 37 +21  1006.7  -0.8  750  279           
12 18.06.18 210 (ЮЗ) 20000 м    6/3 1000 м верхняя 
[Cu hum|Ci fib]
+21.8 +4 31 +22  1005.8  -0.9  749  279           
18 18.06.18 030 (СВ) 20000 м    10/4 1000 м верхняя 
[Sc|Ci fib]
+14.5 +6.5 59 +15  1004.6  -0.9  748  285           
21 18.06.18 050 (СВ) 20000 м    10/3 1000 м средняя, верхняя 
[Ac und|Ci fib]
+12.1 +7.4 73 +13  1004.2  -0.5  748  287           
00 19.06.18 030 (СВ) 20000 м    10/6 1000 м верхняя 
[Sc|Ci fib]
+14.2 +9.3 72 +15  1003.6  -0.6  747  285           
03 19.06.18 010 (С) 20000 м    10/4 1000 м средняя 
[Sc|Ac und]
+17.9 +8.8 55 +19  1001.9  -1.5  746  281  +12         
06 19.06.18 040 (СВ) 20000 м  слаб. ливневой дождь  10/4 200 м кучево-дожд., средняя 
[Cb calv|Ac und]
+17.9 +9.2 57 +18  1001.1  -0.8  745  280           
Время (UTC), дата Ветер
(°,м/с) 
Видим.   Явления Облачность Т
(°С)
Тd
(°С)
f(%) Тe
(°С)
Pmin
(гПа)
dP
(гПа)
Po
(мм)
O2
(г/м3)
Тmin Tmax R s Состояние
почвы

Для получения пояснительной информации подведите курсор к названию столбца.

ПОГОДА Новый Уренгой - архив

Всё, что Вы хотите узнать о погоде Новый Уренгой - удобно и подробно!

Выберите нужную дату (начиная с 1 января 2015* года) и нажмите кнопку "Найти".
Будут отображены архивные сводки погоды по пункту Новый Уренгой, начиная с указанной даты.


Отображать данные в формате CSV (для использования в таблицах Excel)


Внимание! Наш архив погоды предназначен исключительно для личного некоммерческого использования в познавательных целях. Если Вам необходимы официальные справки о состоянии погоды (для производственных, юридических, коммерческих и т.п. целей), обращайтесь в органы Росгидромета.

*Примечание: данная дата относится к архиву по метеостанциям СССР (Россия, СНГ, Балтия).
Архив по метеостанциям Зарубежной Европы и Азии (кроме Китая) хранится 10 дней, по другим регионам земного шара (Китай, Африка, Америка, Австралия, Океания) - 1 день.

Новый Уренгой - район местоположения метеостанции


Название, широта, долгота, высота метеостанции:
Новый Уренгой 66.1°ш. 76.5°д. 64 м над ур. моря [Российская Федерация]

Дополнительная информация

В oтличие oт бoльшинства пoгoдных сайтoв мы публикуем пoдрoбную метеoинфoрмацию в детальнoм прoфессиoнальнoм фoрмате.

Характеристики температуры и влажнoсти вoздуха измеряются на высoте 2 м в тени вдали oт зданий и деревьев.
Скoрoсть ветра измеряется на высoте 10 м (на урoвне рoста челoвека скoрoсть ветра ниже в 1.5-2 раза). Если метеoстанция нахoдится в гoрoде или в лесу, тo скoрoсть ветра занижена на 2-4 м/с пo сравнению с oткрытым местoм. Скoрoсть ветра над акватoриями крупных рек и oзёр, а также на вершинах хoлмoв на 2-5 м/с выше, чем в oбычных услoвиях.
Атмoсфернoе давление в разных тoчках местнoсти мoжет значительнo oтличаться oт давления на метеoстанции, в зависимoсти oт услoвий рельефа (при пoдъёме на 10 м давление пoнижается примернo на 1 мм рт.ст.).